User: anonymous   Login
Location: Unspecified
(0.0000°N, 0.0000°E)
Time: 07:43:14
(UTC+01:00)
Language:

PSLV R/B - Orbit

View from above orbital plane
View from above orbital plane
View from above satellite
View from above satellite

Ground track
Ground track

The orbit data is extracted from the following two-line orbital elements,

1 29713U 07001E   14327.51204727  .00003341  00000-0  41350-3 0  4896
2 29713 097.6586 315.1508 0024472 293.2348 066.6290 14.83176778425101
Epoch (UTC): 23 November 2014 12:17:20
Eccentricity: 0.0024472
inclination: 97.6586°
perigee height: 602 km
apogee height: 636 km
right ascension of ascending node: 315.1508°
argument of perigee: 293.2348°
revolutions per day: 14.83176778
mean anomaly at epoch: 66.6290°
orbit number at epoch: 42510

The dashed part of the orbit path shows where the satellite is in the earth's shadow,  

DLR